カタログに戻る

STARLINK-3225

運用中通信VLEO
NORAD 49737·PAYLOAD·🇺🇸 United States

打ち上げ Dec 2, 2021 から Cape Canaveral Space Force Station

Loading…

次のパス (今後24時間)

TLE

最新Source: CelesTrak SupGP

元期: Sep 14, 2026, 14:26 UTC

1 49737C 21115P   26257.60187500 -.00008168  00000+0 -28214-3 0  2570
2 49737  53.1602  16.7049 0001298  83.1856 117.0264 15.29401019    11

AllMySatでSTARLINK-3225をリアルタイム追跡

Download on the App Store